This demonstration page uses our WeatherBlox Daily Observations layout. Learn more.

Left ArrowRight Arrow

40.97296, -117.73568

Hourly Observations for August 30, 2015

Temp ( °F °C ) Dew Point ( °F °C ) Humidity (%) Winds ( mph kmh ) Pressure ( in mb ) Visibility ( mi km ) Precip ( " mm )
1:56 am 01:56 Clear 64 17.8 37 2.8 37 37 W 17 28 29.86 1011 10 16 0.00 0.00
2:56 am 02:56 Clear 58 14.4 37 2.8 46 46 S 8 13 29.89 1012 10 16 0.00 0.00
3:56 am 03:56 Clear 58 14.4 34 1.1 41 41 SW 8 13 29.90 1012 10 16 0.00 0.00
4:56 am 04:56 Clear 56 13.3 33 0.6 42 42 Calm 29.91 1013 10 16 0.00 0.00
5:56 am 05:56 Clear 49 9.4 33 0.6 55 55 VRB 3 6 29.93 1014 10 16 0.00 0.00
6:34 am 06:34 Sunny with Nearby Thunderstorms 43 6 30 -1 61 61 SSE 7 11 30.06 1018 10 16 0.00 0.00
6:49 am 06:49 Sunny with Thunderstorms 47 8.3 34 1.1 61 61 SE 5 7 30.03 1017 10 16 0.00 0.00
7:56 am 07:56 Sunny 60 15.6 39 3.9 46 46 Calm 29.95 1014 10 16 0.00 0.00
10:56 am 10:56 Sunny 72 22.2 39 3.9 30 30 W 9 15 29.96 1015 10 16 0.00 0.00
12:56 pm 12:56 Sunny 80 26.7 31 -0.6 17 17 W 16 26 29.92 1013 10 16 0.00 0.00
1:56 pm 13:56 Sunny 80 26.7 31 -0.6 17 17 WSW 10 17 29.92 1013 10 16 0.00 0.00
2:56 pm 14:56 Sunny 80 26.7 21 -6.1 11 11 WNW 17 28 29.92 1013 10 16 0.00 0.00
3:56 pm 15:56 Sunny with Thunderstorms 80 26.7 20 -6.7 10 10 WNW 15 24 29.90 1013 10 16 0.00 0.00
4:56 pm 16:56 Sunny with Nearby Thunderstorms 80 26.7 16 -8.9 9 9 W 14 22 29.90 1012 10 16 0.00 0.00
5:56 pm 17:56 Sunny with Nearby Thunderstorms 79 26.1 15 -9.4 9 9 W 10 17 29.91 1013 10 16 0.00 0.00
6:10 pm 18:10 Sunny 79 26 16 -9 9 9 W 15 24 29.71 1006 10 16 0.00 0.00
6:33 pm 18:33 Sunny with Thunderstorms 77 25 13 -10.6 9 9 WNW 8 13 29.71 1006 10 16 0.00 0.00
6:56 pm 18:56 Sunny 75 23.9 12 -11.1 9 9 WNW 6 9 29.91 1013 10 16 0.00 0.00
7:56 pm 19:56 Clear 64 17.8 13 -10.6 13 13 Calm 29.92 1013 10 16 0.00 0.00
8:56 pm 20:56 Clear 57 13.9 16 -8.9 20 20 E 3 6 29.94 1014 10 16 0.00 0.00
9:56 pm 21:56 Clear 53 11.7 13 -10.6 20 20 ESE 5 7 29.94 1014 10 16 0.00 0.00
10:56 pm 22:56 Clear 48 8.9 17 -8.3 29 29 ESE 3 6 29.96 1015 10 16 0.00 0.00
11:56 pm 23:56 Clear 50 10 16 -8.9 26 26 S 8 13 29.95 1014 10 16 0.00 0.00

Powered by AerisWeather